Starlink 30291

operational
NORAD ID: 57856 Int'l Des: 2023-141 Owner: SPXS Country: US Constellation: starlink
LEOCIRCULAR

About Starlink 30291

Description loading...

Live Position

Loading 3D Globe...

Upcoming Passes

Altitude History

Altitude vs Time

uPlot chart will show altitude changes over time

Two-Line Element Set

1 57856U 23141S 26034.56285167 .00001721 00000-0 70240-4 0 9995
2 57856 53.1602 82.5929 0001499 82.3584 277.7587 15.30197382135100
Epoch: Feb 3, 2026 • Age: 15 hours

Current Status

Altitude 477.6 km
Velocity 7.63 km/s
Sub-Earth Point 37.76°N, 27.42°E
Launch Date Sep 12, 2023
Age 2.3 years
Type internet

Technical Details

Classification Payload
Mass 730.00 kg
Dry Mass 700.00 kg
Total Mass 730.00 kg
Length 0.30 m
Diameter 4.10 m
Span 29.00 m
Shape Box + pan
Manufacturer SPXS
Bus Type Starlink V2M
Phase Status In Orbit
Owner/State SPXS/US

Large Constellations

Loading constellations...